Hourly Data Report for October 24, 2018

VICTORIA UNIVERSITY CS
BRITISH COLUMBIA
Current Station Operator: ECCC - MSC

48°27'25.200" N
123°18'16.600" W
60.10 m
1018598
71783
WYJ

Download Data

Hourly Data (October 2018)
Hourly Data Report for October 24, 2018
TIME
LST
Temp Definition
°C
Dew Point Definition
°C
Rel Hum Definition
%
Precip. Amount Definition
mm

Wind Dir Definition
10's deg

Wind Spd Definition
km/h
Visibility Definition
km
Stn Press Definition
kPa
Hmdx Definition


Wind Chill Definition


Weather Definition


00:00 8.3 8.1 99 0.0   0   100.96     LegendNANA
01:00 7.7 7.5 99 0.0 20 3   100.99     LegendNANA
02:00 8.0 7.8 99 0.0 16 2   100.99     LegendNANA
03:00 7.1 6.8 99 0.0 20 4   100.99     LegendNANA
04:00 7.1 6.9 99 0.0 16 3   101.03     LegendNANA
05:00 8.1 8.0 99 0.0 16 3   101.01     LegendNANA
06:00 7.4 7.3 99 0.0 0 1   101.00     LegendNANA
07:00 8.1 8.0 99 0.0   0   101.01     LegendNANA
08:00 8.7 8.6 99 0.2 14 2   101.01     LegendNANA
09:00 9.7 9.5 99 0.0 15 2   101.03     LegendNANA
10:00 10.0 9.9 99 0.0 9 3   101.00     LegendNANA
11:00 11.0 10.8 99 0.2 13 2   100.97     LegendNANA
12:00 12.4 11.3 93 0.0 14 2   100.97     LegendNANA
13:00 12.4 10.2 86 0.0 13 1   100.93     LegendNANA
14:00 13.5 9.7 78 0.0 11 2   100.93     LegendNANA
15:00 12.3 9.6 83 0.0 8 2   100.91     LegendNANA
16:00 11.5 9.5 88 0.0 36 3   100.84     LegendNANA
17:00 11.4 9.5 88 0.0 11 2   100.80     LegendNANA
18:00 11.0 9.1 88 0.0 1 2   100.81     LegendNANA
19:00 10.7 9.2 90 0.0 5 2   100.75     LegendNANA
20:00 10.6 9.5 93 0.0 35 4   100.85     LegendNANA
21:00 10.9 9.6 92 0.0 2 4   100.81     LegendNANA
22:00 10.7 9.7 94 0.0 36 6   100.84     LegendNANA
23:00 10.1 9.5 96 0.0 1 3   100.80     LegendNANA

Notes on Data Quality.

Legend

  • E = Estimated
  • M = Missing
  • NA = Not Available*
  • [empty] = Indicates an unobserved value
Date modified: